Temp
25 27 26 27 25 24 22 20 24 33 22 33 30 26 28 25 27 27 27 26 24 25 23 27 27 25 22 22 24 26 25 24 23 25 26 27 29 29 31 31 32 32 32 32
22 25 24 23 27 26 27 23 23 27 27 41 42 34 28 28 21 23 19 21 20 22 21 26 25 23 19 19 21 24 23 23 24 25 25 26 28 28 29 30 31 32 32 32
20 24 22 18 26 27 24 22 26 20 31 29 28 24 21 25 23 24 21 20 21 25 20 27 17 19 16 17 19 22 22 23 24 25 25 26 27 28 28 29 30 30 31 32
15 21 17 33 32 32 29 31 27 28 29 29 25 24 26 26 25 23 20 21 21 21 17 24 15 13 13 15 17 18 21 22 25 26 26 26 26 27 27 29 29 29 30 31
16 10 24 34 26 27 26 31 34 32 36 33 30 32 34 25 22 25 21 22 22 20 19 12 11 10 8 13 15 17 20 23 26 27 26 25 25 27 28 29 29 29 30 30
9 13 13 31 29 29 30 26 33 34 33 31 32 28 29 23 14 18 18 16 20 14 8 9 13 8 12 11 18 17 19 23 25 27 26 25 26 26 28 29 28 29 28 30
7 10 17 32 32 30 25 32 33 32 33 30 31 31 28 15 18 16 18 18 9 14 19 17 9 11 14 12 14 15 17 20 21 23 22 23 25 27 28 29 29 28 27 27
9 8 15 31 30 30 36 35 35 32 33 33 34 33 26 27 22 25 27 19 23 23 20 16 11 19 16 18 15 15 19 20 20 21 23 24 24 26 27 28 27 27 27 26
21 24 33 31 35 36 34 36 35 34 36 35 35 35 35 30 27 28 29 25 20 23 22 20 18 22 24 20 18 17 17 15 18 21 24 24 25 25 26 26 25 25 25 24
24 32 32 31 33 34 34 35 35 36 36 35 36 36 34 33 31 29 28 24 22 21 22 22 21 23 23 20 19 13 13 15 18 20 22 23 24 25 24 24 23 22 22 21
21 30 32 33 33 35 36 35 35 34 34 34 34 35 34 33 31 29 28 24 22 23 24 24 22 21 19 19 17 16 14 16 17 18 17 20 21 22 23 22 25 20 18 20
28 35 36 37 35 36 34 35 35 34 34 33 33 34 33 31 31 29 26 22 22 24 24 23 21 20 19 17 16 15 15 16 16 16 15 17 18 21 32 32 33 32 32 29
36 34 34 34 34 37 35 35 34 31 33 34 33 32 30 30 26 26 25 24 25 25 25 23 22 21 19 16 14 14 16 16 14 14 14 15 14 16 16 21 30 31 32 32
32 30 35 33 36 35 33 32 27 26 28 29 30 25 28 26 19 25 25 27 27 27 24 22 22 23 20 15 14 14 14 12 14 15 14 13 13 13 14 13 13 15 20 26
31 32 40 32 26 31 25 21 22 27 29 29 24 26 24 25 26 27 28 24 23 23 25 22 22 24 17 15 14 13 14 13 12 11 11 12 12 11 11 11 11 10 13 20
25 22 20 22 31 32 31 13 20 29 30 31 28 22 25 27 26 25 20 20 20 22 25 22 23 26 19 16 15 14 14 13 13 13 10 9 10 10 9 9 8 8 14 15
25 30 17 24 29 31 30 31 30 32 32 25 26 26 24 22 17 22 19 19 24 28 26 24 26 22 19 17 16 18 16 12 10 8 9 9 9 10 11 10 11 10 12 13
35 34 25 26 27 32 33 26 24 22 23 26 25 19 17 15 22 25 19 18 17 16 15 24 21 17 17 16 18 18 17 14 11 13 9 9 11 14 10 9 9 11 16 22
16 17 13 13 12 14 14 14 13 14 14 18 19 20 21 21 21 18 11 14 17 19 25 16 21 18 17 15 17 16 15 12 10 7 11 8 8 7 9 11 12 17 18 22
8 3 2 2 1 -0 5 5 5 6 9 10 11 11 14 18 12 12 10 17 22 22 14 15 21 18 18 16 19 15 16 15 14 11 10 11 13 15 13 14 17 19 21 21
2 -1 -1 -2 -0 0 -2 -0 -1 4 6 4 3 11 12 12 6 6 8 12 18 18 21 17 21 20 18 17 17 15 15 14 15 17 16 15 16 16 17 19 20 21 21 23
-3 -2 -3 -4 -4 0 -1 -1 -3 -0 2 5 5 1 5 8 4 6 8 13 13 13 18 15 11 18 16 18 16 13 13 14 13 19 18 18 18 18 19 20 20 22 22 18
-6 -5 -4 -4 -4 -3 -2 -0 1 -3 3 5 6 5 2 4 4 9 10 13 11 19 18 17 17 17 16 15 12 14 17 19 19 19 19 19 20 21 21 19 15 13 12 11
-5 -4 -4 -5 -5 1 4 2 2 5 6 11 12 12 10 6 15 17 15 19 20 20 20 21 21 22 20 20 20 20 20 19 19 19 17 14 14 12 11 10 9 9 9 9
-5 -4 -2 1 5 4 1 0 5 8 10 11 11 12 13 13 11 12 13 12 14 13 12 14 16 15 13 13 12 11 11 11 11 10 10 9 8 8 8 8 8 7 7 7
1 1 -0 6 5 6 6 7 7 8 8 7 8 9 10 10 10 10 9 9 8 8 7 7 8 8 8 7 7 7 7 7 7 7 7 6 6 6 6 6 6 6 6 6
5 5 6 7 7 8 8 7 6 5 6 6 4 6 6 6 6 6 5 5 4 4 3 3 4 4 3 3 2 2 2 2 3 3 3 3 4 4 4 4 4 4 4 4
MSLP
1016.40 1016.27 1016.40 1016.49 1016.96 1017.77 1018.33 1017.85 1017.66 1014.79 1014.46 1011.77 1011.63 1012.43 1012.81 1013.26 1013.62 1014.16 1014.22 1014.59 1015.00 1015.25 1015.42 1015.17 1015.20 1014.96 1014.46 1014.10 1013.50 1012.80 1012.02 1011.17 1010.38 1009.51 1008.56 1007.40 1006.17 1005.03 1003.68 1002.43 1001.34 1000.01 999.10 998.50
1016.81 1016.55 1016.45 1016.38 1016.06 1016.57 1016.79 1016.69 1016.25 1014.87 1013.27 1010.86 1010.90 1011.81 1012.57 1013.07 1013.59 1014.00 1014.11 1014.54 1014.73 1014.82 1015.08 1015.12 1015.23 1015.06 1014.60 1014.21 1013.58 1012.96 1012.20 1011.35 1010.47 1009.56 1008.54 1007.48 1006.35 1005.19 1004.02 1002.78 1001.63 1000.35 999.18 998.33
1017.72 1016.92 1016.57 1015.38 1013.43 1014.11 1014.30 1014.08 1013.83 1014.06 1010.82 1010.74 1011.28 1012.05 1012.68 1012.86 1013.50 1013.61 1013.78 1014.29 1014.34 1014.46 1014.83 1015.13 1015.19 1015.16 1014.89 1014.45 1013.88 1013.21 1012.40 1011.48 1010.58 1009.69 1008.77 1007.74 1006.69 1005.55 1004.44 1003.25 1002.30 1001.17 1000.05 998.93
1018.09 1017.30 1015.83 1011.88 1011.00 1011.25 1011.97 1011.57 1011.94 1011.40 1010.18 1010.29 1010.88 1011.48 1011.90 1011.91 1012.48 1012.77 1013.53 1013.69 1013.93 1014.24 1014.61 1014.95 1015.14 1015.17 1014.88 1014.36 1013.91 1013.41 1012.58 1011.68 1010.73 1010.00 1009.16 1008.16 1007.14 1006.01 1005.08 1004.05 1003.10 1002.25 1001.21 1000.15
1018.80 1017.80 1014.15 1010.96 1010.99 1011.00 1011.08 1009.36 1008.93 1009.21 1009.00 1009.95 1010.71 1011.23 1010.76 1010.69 1011.23 1011.81 1012.64 1012.92 1013.19 1013.72 1014.41 1014.85 1015.12 1014.88 1014.71 1014.29 1014.00 1013.50 1012.76 1012.04 1011.17 1010.42 1009.62 1008.67 1007.69 1006.75 1005.78 1004.94 1004.08 1003.22 1002.22 1001.35
1019.25 1017.68 1014.62 1010.65 1009.84 1009.87 1010.01 1009.04 1007.12 1008.04 1008.58 1009.59 1010.50 1011.39 1010.69 1010.81 1011.07 1011.59 1012.30 1012.29 1012.81 1013.52 1014.26 1014.72 1014.53 1014.58 1014.49 1014.59 1014.02 1013.63 1013.05 1012.33 1011.47 1010.74 1010.11 1009.35 1008.44 1007.51 1006.67 1005.87 1005.15 1004.31 1003.44 1002.68
1018.53 1017.16 1013.99 1009.99 1009.74 1009.87 1009.67 1008.05 1007.04 1007.54 1007.98 1009.05 1009.88 1009.72 1009.89 1010.35 1010.88 1011.48 1011.73 1012.04 1012.46 1013.20 1013.42 1013.47 1013.80 1014.25 1014.36 1014.31 1013.95 1013.32 1012.93 1012.33 1011.67 1010.90 1010.31 1009.72 1008.94 1008.18 1007.41 1006.72 1005.95 1005.21 1004.65 1004.22
1018.29 1016.83 1013.45 1009.15 1009.92 1009.41 1007.20 1006.71 1006.90 1007.38 1007.74 1008.23 1008.31 1008.71 1009.36 1009.67 1010.24 1010.69 1011.04 1011.66 1011.95 1012.60 1012.60 1012.52 1012.90 1013.26 1013.54 1013.69 1013.24 1013.00 1012.83 1012.34 1011.76 1011.14 1010.51 1010.02 1009.40 1008.75 1008.12 1007.47 1006.84 1006.41 1005.96 1005.63
1013.29 1010.93 1008.62 1008.01 1006.82 1006.51 1006.63 1006.78 1006.86 1007.09 1007.16 1007.53 1007.94 1007.95 1008.17 1008.62 1009.14 1009.45 1010.08 1010.60 1011.05 1011.47 1011.68 1012.07 1012.30 1012.51 1012.71 1012.86 1012.88 1012.77 1012.73 1012.43 1011.97 1011.53 1010.89 1010.38 1009.96 1009.65 1009.10 1008.61 1008.23 1007.97 1007.61 1007.47
1011.34 1008.28 1007.80 1007.49 1006.91 1006.63 1006.62 1006.51 1006.52 1006.58 1006.79 1007.12 1007.17 1007.07 1007.26 1007.48 1007.86 1008.33 1008.95 1009.59 1009.98 1010.58 1010.92 1011.22 1011.35 1011.68 1011.76 1012.26 1012.60 1012.67 1012.75 1012.50 1012.10 1011.67 1011.29 1010.88 1010.50 1010.44 1010.30 1009.97 1009.63 1009.22 1008.94 1008.81
1009.72 1007.60 1007.02 1006.40 1006.06 1005.63 1005.89 1006.13 1006.34 1006.17 1006.35 1006.42 1006.54 1006.30 1006.54 1006.61 1006.86 1007.13 1007.64 1008.35 1008.96 1009.18 1009.51 1009.85 1010.32 1010.89 1010.95 1011.55 1012.18 1012.49 1012.65 1012.43 1012.10 1011.75 1011.43 1011.18 1010.89 1010.67 1010.66 1010.68 1010.49 1010.60 1010.54 1010.19
1007.30 1005.77 1005.50 1005.19 1004.95 1005.07 1005.59 1005.72 1005.66 1005.97 1005.81 1005.56 1005.78 1005.73 1005.74 1005.72 1005.74 1006.14 1006.67 1007.14 1007.85 1007.91 1008.41 1008.90 1009.57 1009.95 1010.37 1010.61 1011.35 1012.13 1012.59 1012.62 1012.39 1012.31 1012.23 1012.05 1011.64 1011.17 1010.61 1010.38 1010.14 1010.01 1010.00 1009.96
1005.72 1005.14 1005.18 1005.04 1004.90 1004.76 1005.01 1005.14 1004.99 1005.29 1005.30 1005.27 1004.85 1005.01 1005.08 1005.11 1005.03 1005.05 1005.46 1006.09 1006.41 1006.55 1006.93 1007.78 1008.40 1008.92 1009.64 1010.24 1010.26 1010.65 1011.62 1011.78 1012.07 1012.27 1012.40 1012.54 1012.56 1012.43 1012.05 1011.95 1011.58 1011.24 1010.95 1010.68
1005.16 1005.48 1004.90 1004.34 1004.10 1004.00 1004.27 1004.33 1004.78 1004.87 1004.57 1004.55 1004.40 1004.34 1004.37 1004.68 1004.57 1004.68 1004.80 1004.50 1005.05 1005.56 1006.07 1006.53 1007.16 1007.68 1008.17 1009.49 1010.00 1010.11 1010.43 1010.98 1011.49 1011.65 1011.93 1012.21 1012.30 1012.35 1012.41 1012.25 1012.03 1011.85 1011.58 1011.41
1004.45 1004.20 1003.30 1003.66 1003.96 1003.82 1003.79 1004.10 1004.57 1004.55 1004.17 1003.99 1003.84 1003.89 1004.06 1004.14 1003.78 1003.49 1003.36 1003.74 1004.29 1004.78 1005.16 1005.74 1006.19 1006.30 1007.04 1008.25 1009.34 1009.70 1010.18 1010.69 1010.93 1011.40 1011.72 1011.79 1012.01 1012.29 1012.36 1012.45 1012.49 1012.53 1012.23 1011.57
1003.39 1004.03 1004.24 1004.59 1003.88 1003.75 1003.77 1004.31 1004.60 1003.91 1003.57 1003.13 1003.08 1003.23 1003.01 1002.98 1002.82 1002.66 1002.83 1003.21 1003.92 1003.94 1003.70 1004.24 1004.79 1005.04 1005.94 1006.95 1008.08 1009.00 1009.25 1009.60 1010.23 1010.76 1011.32 1011.84 1012.21 1012.54 1012.81 1012.87 1012.92 1012.86 1012.64 1012.43
1003.84 1004.01 1004.35 1004.25 1003.81 1003.70 1003.77 1003.61 1003.65 1003.31 1002.92 1002.80 1002.63 1002.42 1002.44 1002.49 1002.55 1002.51 1002.31 1002.55 1002.49 1002.42 1002.58 1003.05 1003.19 1004.29 1005.17 1005.91 1006.63 1007.70 1008.40 1009.00 1009.69 1010.49 1011.11 1011.61 1011.86 1012.20 1012.25 1012.38 1012.38 1012.38 1012.13 1011.99
1002.35 1002.44 1003.15 1003.50 1003.88 1004.00 1003.46 1003.51 1003.51 1003.38 1003.15 1002.50 1002.20 1002.16 1002.42 1002.51 1002.27 1001.80 1001.67 1001.85 1002.07 1002.29 1002.34 1002.31 1002.79 1003.52 1004.52 1005.37 1005.83 1006.49 1007.30 1008.15 1008.98 1009.46 1010.01 1010.68 1011.01 1011.25 1011.56 1011.75 1011.85 1011.91 1011.59 1011.37
1003.20 1003.72 1004.35 1004.62 1004.85 1004.77 1004.53 1004.33 1004.20 1003.68 1003.32 1002.85 1002.56 1002.22 1001.92 1001.76 1001.57 1001.40 1001.57 1001.66 1001.86 1002.01 1001.23 1001.93 1002.50 1002.93 1003.72 1004.54 1005.24 1005.90 1006.50 1007.19 1007.91 1008.44 1008.91 1009.45 1010.11 1010.50 1010.93 1011.14 1011.25 1011.20 1011.02 1010.83
1004.33 1004.91 1005.31 1005.70 1005.67 1005.82 1005.39 1005.02 1004.73 1004.45 1003.75 1003.20 1002.68 1002.43 1002.04 1001.57 1001.44 1001.27 1001.28 1001.33 1000.82 1000.82 1000.67 1001.12 1001.86 1002.30 1002.84 1003.84 1004.53 1005.13 1005.82 1006.41 1006.94 1007.62 1008.35 1008.83 1009.15 1009.51 1009.74 1010.11 1010.32 1010.33 1010.32 1010.38
1005.88 1006.37 1006.62 1006.69 1006.49 1006.13 1005.92 1005.60 1005.32 1004.72 1003.93 1003.41 1003.13 1002.61 1002.20 1001.63 1001.36 1001.27 1001.59 1001.25 1000.79 1000.50 1000.60 1000.81 1001.54 1002.16 1002.59 1003.17 1003.97 1004.72 1005.40 1005.90 1006.38 1006.66 1007.04 1007.74 1008.41 1008.60 1008.86 1009.02 1009.15 1009.24 1009.48 1009.77
1007.38 1007.30 1007.30 1007.22 1006.95 1006.65 1006.15 1005.79 1005.34 1004.78 1004.13 1003.45 1002.87 1002.51 1002.28 1002.10 1001.74 1001.70 1001.86 1001.76 1000.93 1000.81 1000.90 1000.88 1001.20 1001.85 1002.50 1003.12 1003.92 1004.46 1005.03 1005.91 1006.50 1006.72 1006.92 1007.20 1007.59 1007.87 1008.22 1008.36 1008.70 1008.78 1009.01 1009.33
1008.04 1008.03 1008.00 1007.84 1007.30 1007.11 1006.55 1006.11 1005.63 1005.18 1004.71 1004.13 1003.67 1003.25 1003.04 1003.12 1002.96 1002.63 1002.37 1002.33 1001.86 1001.82 1001.91 1002.06 1002.07 1002.35 1002.87 1003.61 1004.26 1004.81 1005.46 1005.54 1006.29 1006.80 1006.88 1007.15 1007.35 1007.75 1008.02 1008.25 1008.83 1009.20 1009.63 1010.08
1008.69 1008.28 1007.92 1007.41 1007.21 1007.03 1006.91 1006.80 1006.23 1005.81 1005.33 1004.94 1004.43 1004.07 1003.75 1003.80 1003.84 1003.77 1003.61 1003.32 1003.03 1002.86 1002.94 1003.07 1002.98 1003.16 1003.48 1004.29 1004.95 1005.41 1005.94 1006.22 1006.33 1007.02 1007.38 1007.63 1008.02 1008.49 1008.95 1009.30 1009.79 1010.31 1010.55 1010.85
1008.44 1008.05 1007.99 1007.80 1007.47 1007.66 1007.46 1007.02 1006.65 1006.38 1005.98 1005.75 1005.64 1005.41 1005.15 1005.15 1005.20 1005.70 1005.28 1005.16 1004.87 1004.60 1004.95 1005.23 1004.97 1004.98 1005.54 1006.07 1006.53 1006.93 1007.51 1007.75 1007.93 1008.39 1008.90 1009.05 1009.44 1009.86 1010.25 1010.59 1010.90 1011.06 1011.36 1011.65
1008.72 1008.63 1008.55 1008.30 1008.14 1007.98 1007.90 1007.70 1007.49 1007.50 1007.25 1007.26 1007.40 1007.35 1007.16 1006.98 1007.05 1007.13 1007.14 1007.00 1006.91 1006.88 1007.16 1007.46 1007.42 1007.54 1007.78 1008.22 1008.55 1008.89 1009.22 1009.43 1009.80 1010.18 1010.42 1010.72 1010.90 1011.13 1011.52 1011.80 1011.95 1011.98 1012.13 1012.34
1008.84 1008.69 1008.57 1008.67 1008.78 1008.77 1008.66 1008.68 1008.55 1008.84 1008.76 1008.89 1009.09 1009.34 1009.19 1009.04 1009.00 1008.95 1009.18 1009.23 1009.14 1009.29 1009.47 1009.70 1009.68 1009.82 1010.08 1010.43 1010.67 1010.90 1011.15 1011.43 1011.71 1011.90 1012.06 1012.11 1012.26 1012.55 1012.73 1012.83 1012.87 1012.88 1012.91 1013.01
Wind_Speed
3 3 2 3 5 12 10 7 9 11 12 17 7 8 9 7 5 7 7 5 6 4 5 3 7 7 7 8 10 11 11 11 12 12 13 13 13 14 13 12 12 10 7 6
3 1 3 5 7 13 16 3 13 13 22 19 19 6 6 8 5 8 6 7 7 5 4 3 4 6 7 8 10 10 11 10 11 12 12 13 13 13 13 12 12 10 9 6
6 2 1 8 14 18 8 7 10 11 20 1 6 5 6 8 8 10 8 7 7 6 4 4 4 5 6 7 8 9 10 10 10 11 12 12 12 12 13 13 12 12 13 12
3 0 5 7 2 7 14 10 16 10 13 7 7 5 9 10 10 9 8 8 7 5 4 4 3 4 5 5 5 6 8 10 9 11 11 12 11 12 12 11 11 10 12 13
3 4 7 9 4 8 10 11 22 24 17 5 1 5 9 5 7 8 8 7 6 5 5 3 4 4 3 4 5 5 7 10 10 10 11 11 11 11 11 10 10 11 10 13
2 5 8 6 3 4 4 7 5 12 11 7 5 1 7 5 2 5 7 5 7 6 3 2 4 2 1 4 4 5 7 8 8 7 8 10 11 10 8 8 8 9 13 14
2 3 11 8 6 6 5 7 2 7 5 8 7 9 5 2 4 3 5 7 4 4 6 6 4 3 0 3 3 4 6 6 6 6 5 6 6 7 9 8 9 11 13 14
4 2 12 9 7 8 6 1 2 4 5 8 8 5 5 7 6 7 8 6 8 7 7 5 6 5 3 3 4 3 4 4 5 6 5 5 5 7 8 8 10 11 11 11
13 12 2 9 6 8 2 2 3 4 6 7 7 8 7 7 9 10 11 9 6 8 6 5 6 5 4 4 2 2 3 4 4 5 6 6 6 8 6 8 7 8 8 9
4 7 16 10 8 7 6 10 6 7 6 6 10 9 9 7 7 8 9 10 7 8 7 7 7 7 6 4 3 3 1 2 2 3 4 6 5 5 6 7 6 6 6 7
6 9 8 10 11 11 9 8 9 8 9 12 9 13 10 8 8 8 9 7 9 11 10 11 7 8 7 6 5 3 3 3 1 1 2 2 2 2 3 1 4 2 3 3
8 9 4 3 3 4 6 8 10 9 6 8 9 13 8 9 8 7 8 6 9 12 9 9 8 8 8 8 8 5 3 3 2 1 2 2 2 4 11 10 13 13 12 10
5 3 5 5 8 8 9 11 10 7 10 10 8 10 6 7 6 7 7 9 13 15 14 9 10 10 8 8 9 9 7 5 3 2 1 0 1 2 3 4 11 13 11 11
6 1 12 6 9 7 9 8 5 6 7 8 10 4 6 8 3 8 10 13 10 11 10 11 11 13 10 8 8 7 6 6 4 3 3 2 1 2 2 2 1 2 3 6
11 14 18 4 7 10 4 2 5 10 8 9 8 11 6 10 12 13 9 7 7 9 10 10 11 13 10 11 10 8 6 4 4 4 3 4 3 3 2 2 1 1 3 4
4 5 5 6 15 12 11 1 7 13 11 13 8 6 11 12 10 8 6 8 9 13 15 13 14 12 11 13 11 6 7 8 6 4 3 3 2 3 3 2 1 1 0 1
2 10 3 9 11 11 12 10 10 12 12 7 9 10 8 8 5 7 8 8 11 10 10 13 16 8 11 12 13 8 7 6 7 4 4 4 4 5 4 3 3 3 3 4
13 8 5 5 5 11 14 6 6 6 8 9 8 5 5 6 10 10 7 7 5 5 6 9 6 8 9 10 11 7 7 7 6 7 5 5 5 4 4 4 4 4 3 3
2 3 3 5 4 6 6 5 5 5 5 8 8 9 8 8 8 6 4 5 7 8 10 8 9 10 10 10 10 6 6 7 7 4 6 6 5 5 4 4 4 5 4 4
3 2 2 3 4 2 6 5 7 7 7 6 6 6 7 8 5 5 5 8 9 5 4 6 11 10 9 9 12 7 7 8 7 5 5 5 5 5 5 6 6 5 5 4
2 2 3 3 5 5 4 5 5 7 8 5 4 7 6 6 4 3 3 2 5 6 6 8 7 5 6 8 9 6 6 6 6 7 7 6 5 5 5 5 5 5 4 5
2 3 4 4 4 6 5 5 4 6 6 6 5 4 4 5 4 2 1 2 4 1 1 3 3 5 5 9 5 4 5 4 2 3 4 4 4 5 5 4 4 4 3 3
2 2 4 4 3 4 6 6 6 4 6 8 8 8 4 2 3 4 4 8 4 7 4 3 5 8 9 5 5 5 5 5 4 3 3 3 3 3 1 3 4 5 5 4
2 2 3 4 2 4 9 7 6 6 5 8 10 9 7 4 8 7 5 10 14 15 12 8 10 12 9 6 6 5 5 4 5 4 6 8 6 6 6 6 6 5 5 6
3 3 5 5 9 6 5 5 6 8 10 12 13 12 13 11 9 7 9 10 17 14 12 17 19 18 11 10 10 10 9 9 8 8 8 8 7 7 6 6 6 5 5 5
4 5 3 7 6 6 5 5 8 8 8 9 10 10 10 10 10 10 10 14 13 15 12 11 11 12 12 12 12 11 10 10 10 9 9 8 8 7 7 6 6 5 5 4
5 6 5 8 8 8 8 9 9 9 9 8 10 10 10 10 12 12 14 12 12 12 12 11 12 13 11 11 11 11 10 10 12 9 8 8 8 7 6 6 5 5 4 4
Wind_Direction
254 225 186 203 172 176 199 194 187 262 208 254 260 237 247 232 233 248 253 235 237 243 263 307 331 316 319 320 323 322 319 323 321 320 319 317 323 324 324 328 322 314 300 252
278 216 199 259 224 197 215 236 261 272 286 264 276 268 277 268 275 273 256 245 235 236 260 312 315 310 319 321 323 322 314 319 321 327 326 329 331 333 331 341 338 345 356 352
261 44 306 291 226 198 195 207 191 201 235 338 268 241 249 266 237 254 251 242 219 215 223 274 273 287 307 309 316 320 314 320 328 336 337 335 333 344 349 354 351 1 12 18
217 81 255 246 147 192 206 231 211 262 254 213 235 254 254 235 240 246 228 236 223 198 222 259 240 279 291 306 326 322 322 322 339 344 337 335 338 357 349 357 7 7 17 29
180 203 299 290 195 157 171 270 205 220 248 252 222 314 292 237 203 224 204 212 202 185 184 208 255 255 300 342 333 328 346 338 340 348 340 337 346 353 358 4 14 18 21 32
141 178 215 238 166 171 168 296 193 185 227 180 119 8 264 274 233 238 217 184 180 194 175 195 252 222 10 328 329 337 332 325 325 339 346 348 341 346 352 4 12 28 32 34
185 244 285 237 159 156 99 237 135 185 185 146 179 202 220 278 256 225 205 199 167 179 210 209 188 199 248 288 312 285 302 313 325 331 332 329 337 349 351 14 31 36 41 35
114 109 265 147 81 184 208 275 154 193 204 196 234 265 235 233 244 202 215 207 199 201 223 218 199 186 194 260 255 298 319 333 339 336 346 344 354 352 3 15 29 34 39 42
188 206 254 213 205 216 153 177 223 204 197 213 233 246 245 231 212 211 214 215 197 204 214 210 206 204 198 217 204 22 10 345 350 352 3 359 16 10 16 18 29 30 38 37
121 237 234 233 266 246 220 232 231 239 236 206 242 258 256 245 228 212 202 212 188 191 209 221 198 204 202 170 157 125 108 335 335 27 15 12 16 29 27 25 28 25 35 44
269 278 282 238 223 234 241 249 259 255 230 234 242 262 249 254 236 221 210 185 187 199 207 215 186 206 192 173 162 166 199 240 239 138 90 74 32 63 49 27 65 62 22 16
216 227 192 211 139 169 215 241 237 235 270 243 214 249 238 247 232 213 207 178 196 209 205 206 193 200 203 172 161 168 202 247 253 303 12 35 36 31 57 70 70 74 63 57
222 230 225 267 268 216 222 233 243 224 226 256 252 228 221 241 226 211 203 194 205 206 208 191 197 199 200 187 170 169 195 203 207 205 197 138 34 43 32 5 49 60 73 90
229 0 291 192 247 212 223 242 231 242 244 228 247 226 232 233 238 214 218 217 204 201 201 195 193 208 183 178 183 183 184 187 193 196 187 169 164 132 112 100 102 302 16 61
236 215 241 319 296 274 240 195 248 256 257 257 227 238 216 246 246 238 230 189 185 195 207 194 203 215 169 167 184 185 179 192 182 181 187 185 167 155 143 141 112 24 340 351
230 244 269 228 264 272 275 198 241 273 270 266 263 236 242 242 251 244 205 173 164 207 211 196 208 213 172 170 180 186 192 184 182 175 165 162 158 148 158 167 162 211 252 250
138 274 279 261 242 254 246 253 240 260 272 259 253 254 252 250 254 250 230 206 214 222 205 193 214 172 175 178 174 189 187 171 159 152 170 177 176 192 204 195 202 206 216 212
216 251 195 232 301 292 282 265 259 256 258 268 266 254 249 224 248 261 226 201 206 244 215 208 179 154 171 183 184 181 178 174 173 186 170 183 193 194 190 196 199 209 229 238
147 267 289 282 277 283 291 276 269 285 298 285 285 275 256 251 245 248 210 180 197 220 243 184 179 166 175 183 177 171 173 171 175 176 181 165 176 181 190 197 210 220 225 228
337 35 22 299 309 240 292 284 297 293 278 286 291 292 280 271 247 234 186 215 209 209 157 167 182 181 177 170 174 174 181 183 180 172 162 184 190 194 186 200 213 215 206 210
349 349 316 323 307 300 267 276 296 306 303 290 278 276 272 285 268 192 164 214 268 189 181 161 177 177 167 162 169 172 172 171 177 180 177 176 180 194 205 208 210 207 204 213
324 337 329 323 322 319 325 324 315 320 329 341 335 322 324 323 355 349 323 196 307 193 102 141 148 131 133 148 143 133 133 131 118 153 159 166 180 185 201 196 206 203 204 91
2 356 330 328 322 311 326 0 4 2 24 21 17 5 18 15 6 35 18 347 20 44 44 32 87 100 113 99 108 126 140 144 142 158 151 160 160 181 149 97 71 74 76 76
356 3 10 333 355 45 41 359 3 17 30 37 36 31 32 39 52 35 38 50 57 57 53 50 75 82 81 82 85 82 80 83 93 77 78 66 69 66 67 73 75 70 75 76
24 27 20 26 52 37 10 347 37 33 42 44 36 33 39 41 60 35 42 44 45 56 55 47 55 60 59 58 61 61 57 54 57 62 61 66 66 67 66 66 68 71 70 68
49 58 42 46 52 42 28 31 55 40 44 50 42 34 37 42 45 45 48 51 51 54 52 47 48 55 58 58 59 60 59 59 58 60 64 63 63 63 63 63 62 62 63 62
54 50 54 55 40 41 48 48 57 49 44 50 59 37 40 44 47 54 48 46 50 51 53 50 49 52 58 58 56 54 54 54 51 55 53 53 53 52 50 49 49 45 46 46